Vertical_Velocity
1 0 -0 -0 -1 0 0 -2 -1 -1 -2 -4 -5 -4 -4 -1 1 0 1 1 1 1 1 0 0 -1 -0 -1 -1 -1 -1 -1 -0 -0 -0 -1 -1 -1 -4 -2 0 1 2 -0
1 0 -0 0 -0 0 -0 -0 0 -0 -3 0 1 2 1 -0 -0 1 1 1 1 1 1 1 0 -0 -0 -1 -1 -1 -1 -1 -1 -1 -1 -1 -2 -2 0 -1 -1 -1 -1 -0
0 -0 0 1 -8 -2 -1 0 -7 -3 -7 0 2 1 -1 0 -1 -1 1 1 -0 -1 -1 -1 -1 -1 -1 -1 -1 -1 -1 -1 -1 -2 -1 -1 -1 -1 -0 -2 -4 -4 -2 -1
1 1 1 -3 0 -0 -2 -1 0 0 0 -1 -1 3 -1 2 -1 0 0 -0 0 1 2 1 1 0 1 1 0 0 -0 -1 -2 -1 -1 -1 -0 -0 0 1 1 -3 -5 -4
-1 -1 -2 2 -0 -3 -5 -5 -4 -2 2 2 1 -2 1 1 1 -0 -0 0 1 0 0 0 -0 -0 0 0 -0 -0 -1 -1 -2 -2 -2 -2 -1 -1 -2 -3 -0 2 -3 -1
1 1 -2 2 0 -0 0 -3 -1 -4 -1 -3 2 2 2 -1 1 0 0 0 -0 -0 -1 -2 -2 -2 -2 -2 -2 -1 -2 -1 -0 -0 -1 -2 -2 -2 -2 -3 -4 -3 -2 -2
0 -1 -6 0 -0 -1 5 -1 -0 -1 -3 -2 -1 3 -1 0 1 1 1 -0 -0 -0 -0 -0 -1 -1 -2 -1 -2 -1 -2 -2 -2 -2 -4 -2 -2 -1 -1 -1 -1 -1 -1 -2
1 2 -5 -1 3 4 4 2 -0 1 1 -1 -1 0 1 1 1 -0 0 0 -0 0 0 -0 -0 0 -1 -0 -1 -1 -1 -1 -1 -1 -2 -2 -2 -2 -1 -0 -1 -1 -1 -1
-3 -3 2 1 1 0 0 -1 0 -1 -0 -1 -1 1 1 0 0 -0 0 0 -0 -0 -0 -1 -1 -0 1 -0 -1 -1 -2 -2 -3 -2 -2 -1 -2 -1 -2 -1 -1 -1 -2 -1
2 4 1 1 0 0 1 0 -1 0 -0 0 -2 0 -1 -0 -0 -0 -0 -0 -0 -1 -1 -1 -0 -1 -1 -2 -2 -2 -2 -2 -1 -0 0 0 0 1 -0 -1 -1 0 1 -1
-1 1 0 0 1 1 1 1 0 1 1 1 1 0 0 -0 0 0 0 1 1 0 -0 -0 -1 -1 -1 -2 -2 -1 0 -1 -1 -1 -0 0 0 1 0 -0 -0 -0 -0 2
2 2 1 2 2 2 1 0 1 1 -1 -0 1 0 0 1 2 1 1 -0 -1 -1 -1 -2 -2 -2 -2 -2 -1 -0 -0 -2 -1 -2 -1 -1 -2 -2 -1 -1 -1 0 -0 0
3 1 0 2 1 1 -1 -0 -0 -0 0 1 0 1 1 0 0 0 0 -0 -1 -1 -1 -2 -1 -0 -0 -0 0 0 -0 0 -1 -1 -1 -1 -2 -2 -4 -2 -3 -2 0 2
1 1 -1 1 -0 0 1 -1 1 0 0 -0 -1 -1 -1 -1 -0 0 0 -0 -0 -1 -1 -2 -2 -2 -2 -2 -2 -1 -1 -1 -2 -2 -1 -0 -0 -1 -1 -1 -2 -3 -1 -2
0 1 1 0 0 0 1 0 -0 -1 -1 -1 -0 -0 -0 -1 -1 -2 -2 -1 -1 -2 -2 -2 -1 -1 -2 -2 -2 -2 -2 0 1 -1 -1 -0 -1 -1 -0 0 0 0 -1 0
1 1 -0 0 -0 -0 -0 -1 -1 -1 -2 -1 -1 -1 -0 -1 -1 -1 -2 -3 -1 -1 -2 -2 -1 -1 -1 -2 -2 -2 -1 -1 -1 -2 -1 -1 -0 -0 -0 1 1 1 2 -1
0 -0 0 -0 -0 -1 -1 -1 -0 0 0 -0 -1 -3 -3 -2 -1 -1 -2 -2 -2 -1 -1 -2 -1 0 -1 -1 -1 -3 -2 -2 0 -1 -1 0 -0 -0 2 2 3 2 2 -0
-0 -0 -1 -1 -1 -1 -1 -1 -2 -2 -2 -2 -1 -1 -1 -2 -2 -2 -2 -2 -1 -1 -0 -2 -1 1 -1 -1 1 -1 -2 -1 -1 -1 -1 -1 0 -0 1 2 5 3 4 -0
0 -0 0 -0 0 0 -0 -1 -1 -0 -2 -2 -0 -1 -2 -0 -0 -0 -1 -1 -1 -2 1 -0 -0 0 -1 0 1 -1 -1 -0 0 1 1 0 -0 -0 -0 0 1 3 2 2
-1 0 -1 -1 -1 -1 -1 0 -0 -1 -1 -0 -1 -1 -1 -0 -1 -1 -1 -3 -2 -1 -4 0 1 -1 -2 -1 1 -1 -0 -1 1 -0 -1 -1 -1 -1 -1 -1 -1 0 0 1
-0 -1 -1 -1 -2 -1 -0 -1 -1 1 0 -0 -0 0 -0 1 1 0 -1 -4 3 -0 -2 -2 -0 -2 -2 -1 -1 -2 -0 1 2 2 0 -0 -1 -2 -1 -2 -2 -1 -1 -1
-1 -0 0 -0 -1 -1 -0 -0 -0 -0 -1 -0 -1 -1 -1 -1 -2 -2 -0 -2 -0 1 -1 -1 -1 -1 -3 0 7 9 0 -2 -2 -0 -2 -1 -1 -1 -1 -1 -1 -1 -1 -1
-1 -1 -0 -1 0 1 0 -2 0 -1 -1 -0 -1 -1 -1 -0 -1 -1 -4 2 -1 -1 -1 -2 -2 -3 -4 6 -2 -1 -1 -1 -1 -1 -2 -2 -1 -1 -1 0 -0 -0 -1 -1
-0 -0 0 1 0 -1 -1 1 -1 -1 -1 -0 -2 1 -0 -2 -3 1 -2 -2 -1 -0 1 -3 -1 -1 17 1 -0 -0 -0 -1 -1 -1 -2 -0 -1 -0 -1 -1 -1 -1 -1 -1
0 -0 -0 -1 -1 -0 -1 -0 -3 -1 -1 -2 -2 -0 -0 -0 -3 1 -2 -2 -0 -0 -2 -2 -2 -4 20 3 2 1 0 -0 -0 -0 -1 -1 -1 -2 -2 -1 -1 -1 -2 -2
-1 -1 -1 -1 -1 -1 -0 -1 -4 -1 -1 -2 -2 0 1 -0 -3 -2 -2 0 -3 -0 -1 -1 -1 -1 1 2 2 1 0 0 1 2 -0 -2 -1 -1 -0 0 -0 -0 -1 -2
0 -0 -1 -1 1 1 0 -0 -2 -2 3 0 -4 1 -2 0 1 1 1 -2 0 -0 -1 -2 -2 -0 -0 -2 -0 0 -1 -1 1 -1 2 0 -1 -1 -0 0 0 -0 -0 -0
Height
1468 1472 1474 1474 1476 1483 1479 1471 1463 1465 1471 1472 1479 1484 1490 1495 1499 1503 1506 1508 1511 1513 1515 1517 1518 1520 1522 1523 1524 1526 1527 1528 1528 1529 1530 1530 1531 1531 1532 1533 1534 1534 1534 1534
1474 1478 1484 1478 1480 1478 1480 1484 1485 1492 1480 1475 1480 1484 1490 1494 1497 1501 1504 1506 1509 1511 1514 1516 1517 1519 1520 1522 1523 1524 1524 1524 1525 1525 1525 1526 1526 1526 1527 1527 1528 1528 1528 1528
1457 1482 1484 1472 1467 1470 1468 1470 1471 1476 1463 1473 1481 1482 1486 1491 1495 1498 1501 1504 1507 1510 1512 1514 1515 1517 1518 1519 1520 1520 1521 1521 1521 1521 1521 1521 1521 1521 1521 1521 1521 1521 1521 1521
1471 1483 1462 1449 1466 1464 1459 1465 1467 1469 1470 1471 1475 1481 1486 1490 1493 1496 1499 1502 1506 1508 1510 1512 1513 1514 1515 1516 1516 1516 1516 1516 1516 1516 1515 1515 1515 1515 1515 1515 1515 1515 1514 1514
1467 1462 1449 1453 1463 1462 1458 1446 1456 1463 1471 1475 1479 1483 1489 1490 1492 1495 1499 1502 1504 1507 1508 1509 1510 1511 1512 1513 1513 1513 1512 1512 1511 1511 1510 1509 1508 1508 1507 1507 1508 1508 1509 1509
1475 1455 1440 1444 1453 1455 1456 1442 1452 1457 1465 1470 1476 1475 1482 1487 1491 1494 1498 1501 1503 1504 1505 1506 1508 1509 1509 1509 1509 1508 1507 1507 1507 1506 1504 1503 1502 1501 1501 1500 1500 1501 1501 1502
1461 1454 1444 1447 1453 1455 1444 1444 1455 1458 1462 1468 1471 1475 1477 1484 1489 1493 1496 1499 1500 1502 1503 1503 1504 1504 1504 1504 1504 1503 1502 1502 1502 1501 1499 1498 1497 1495 1495 1494 1494 1494 1494 1494
1467 1467 1446 1450 1455 1449 1453 1456 1457 1461 1465 1469 1471 1474 1479 1484 1488 1492 1494 1496 1498 1499 1499 1499 1500 1500 1499 1498 1498 1497 1496 1495 1495 1494 1493 1492 1491 1490 1489 1488 1487 1487 1487 1487
1443 1439 1451 1453 1454 1455 1455 1456 1460 1462 1465 1469 1472 1476 1481 1484 1487 1490 1492 1494 1495 1496 1496 1496 1495 1495 1494 1493 1493 1492 1491 1490 1489 1488 1487 1486 1485 1483 1482 1481 1481 1480 1480 1479
1446 1450 1452 1454 1455 1456 1457 1459 1461 1464 1468 1471 1473 1478 1481 1484 1486 1488 1490 1491 1492 1492 1492 1492 1491 1491 1490 1489 1489 1487 1486 1485 1484 1482 1481 1479 1478 1477 1475 1475 1474 1474 1473 1473
1447 1453 1455 1455 1457 1458 1459 1461 1463 1466 1469 1472 1475 1477 1480 1483 1485 1486 1487 1487 1488 1488 1488 1488 1488 1487 1486 1486 1485 1484 1482 1480 1478 1476 1475 1473 1472 1470 1469 1468 1469 1468 1468 1468
1435 1452 1452 1456 1458 1460 1461 1463 1466 1468 1471 1473 1476 1478 1480 1481 1482 1484 1484 1485 1485 1485 1485 1485 1485 1484 1483 1482 1480 1479 1477 1475 1473 1471 1469 1467 1465 1463 1463 1462 1461 1461 1461 1461
1454 1454 1454 1456 1459 1461 1463 1465 1468 1470 1472 1474 1475 1477 1478 1480 1481 1481 1482 1483 1483 1483 1483 1482 1482 1481 1480 1478 1476 1474 1472 1470 1468 1466 1464 1462 1460 1458 1456 1455 1454 1455 1455 1456
1455 1457 1459 1460 1461 1463 1465 1467 1469 1470 1472 1473 1475 1476 1477 1479 1479 1480 1480 1480 1480 1480 1479 1479 1478 1477 1476 1474 1472 1470 1468 1466 1463 1461 1459 1457 1455 1453 1452 1450 1449 1448 1448 1450
1458 1458 1458 1460 1463 1465 1467 1468 1469 1471 1472 1474 1475 1476 1477 1477 1477 1478 1478 1478 1477 1477 1476 1475 1474 1472 1471 1469 1467 1465 1464 1462 1460 1457 1455 1453 1451 1449 1448 1446 1444 1443 1442 1442
1460 1461 1462 1464 1465 1466 1468 1469 1471 1472 1473 1474 1475 1475 1476 1476 1476 1475 1475 1475 1474 1473 1471 1470 1469 1467 1466 1464 1463 1461 1459 1458 1456 1454 1451 1449 1447 1445 1444 1443 1441 1439 1437 1437
1464 1465 1465 1466 1467 1468 1470 1471 1472 1472 1473 1473 1473 1474 1474 1474 1473 1472 1471 1470 1469 1468 1466 1464 1464 1463 1461 1460 1459 1457 1455 1453 1452 1449 1448 1447 1444 1441 1440 1439 1438 1436 1434 1433
1466 1466 1467 1468 1469 1469 1470 1470 1471 1471 1472 1472 1472 1471 1471 1470 1470 1468 1467 1466 1464 1462 1461 1459 1458 1458 1456 1456 1455 1453 1452 1450 1448 1446 1444 1443 1441 1438 1437 1436 1434 1433 1431 1430
1467 1468 1468 1469 1469 1469 1469 1469 1470 1470 1469 1470 1469 1468 1467 1466 1465 1463 1462 1460 1459 1457 1457 1455 1453 1453 1451 1451 1451 1450 1448 1447 1445 1444 1442 1440 1438 1437 1435 1434 1432 1431 1430 1429
1468 1468 1468 1468 1468 1468 1468 1468 1467 1467 1466 1466 1465 1464 1463 1462 1460 1458 1456 1454 1454 1452 1451 1450 1448 1447 1446 1446 1446 1445 1445 1444 1443 1442 1440 1439 1437 1435 1434 1432 1431 1430 1429 1428
1467 1467 1466 1466 1466 1466 1465 1465 1464 1464 1463 1462 1460 1459 1458 1456 1455 1453 1451 1448 1449 1447 1445 1444 1444 1442 1441 1441 1441 1441 1441 1440 1440 1439 1437 1436 1434 1433 1431 1430 1429 1428 1427 1427
1465 1465 1464 1463 1463 1462 1462 1461 1460 1459 1459 1457 1456 1454 1453 1451 1450 1448 1446 1444 1443 1442 1440 1439 1438 1437 1438 1438 1438 1437 1436 1436 1435 1435 1434 1432 1431 1429 1428 1426 1424 1424 1423 1423
1462 1461 1461 1460 1459 1458 1457 1457 1456 1455 1454 1453 1451 1450 1449 1447 1445 1443 1441 1440 1437 1436 1436 1435 1434 1435 1435 1433 1433 1432 1432 1431 1431 1430 1429 1428 1426 1424 1422 1421 1420 1419 1419 1418
1460 1458 1457 1456 1455 1454 1453 1453 1451 1450 1449 1448 1447 1446 1444 1442 1441 1439 1437 1435 1433 1433 1432 1431 1430 1429 1430 1427 1427 1427 1426 1426 1425 1424 1423 1421 1419 1418 1417 1416 1415 1414 1413 1413
1457 1455 1454 1452 1451 1450 1449 1448 1447 1446 1444 1442 1441 1440 1439 1437 1435 1434 1432 1430 1428 1427 1425 1424 1424 1425 1424 1422 1421 1421 1420 1420 1419 1418 1416 1415 1413 1412 1411 1410 1409 1409 1408 1407
1453 1452 1450 1449 1448 1446 1445 1444 1442 1441 1439 1436 1435 1434 1432 1430 1428 1427 1425 1424 1422 1421 1420 1418 1417 1416 1416 1415 1415 1414 1413 1412 1411 1411 1409 1408 1407 1406 1405 1404 1403 1403 1402 1401
1449 1448 1446 1444 1443 1442 1440 1438 1435 1434 1433 1430 1427 1426 1425 1423 1421 1419 1418 1416 1416 1414 1413 1412 1411 1410 1409 1408 1407 1406 1405 1404 1404 1402 1402 1401 1400 1399 1398 1398 1397 1396 1395 1394